Terminal Aerodrome Forecast
Issued by NWS Upton, NY

Home | Current Version | Previous Version | Text Only | Print | Product List | Glossary On
Versions: 1 2 3 4 5 6 7 8 9 10 11 12 13 14 15 16 17 18 19 20 21 22 23 24 25 26 27 28 29
693
FTUS41 KOKX 201546 AAB
TAFJFK
TAF AMD
KJFK 201546Z 2016/2118 34013G20KT P6SM FEW040
     FM210200 02008KT P6SM SKC
     FM210500 04005KT P6SM SKC
     FM211500 13007KT P6SM SCT200=

USA.gov is the U.S. government's official web portal to all federal, state and local government web resources and services.